This is the latest recevied weather packets stored in our database for station/object VE6CWS-7. If no packets are shown the sender has not sent any weather packets the latest 10 day(s).
| Time | Temp. | Humidity | Pressure | Rain* | Wind** | Luminosity | Snow |
|---|---|---|---|---|---|---|---|
| 1778063446 | -2.22° C | 70% | 1017.8 hPa | 0 mm | - | - | - |
| 1778062536 | -2.22° C | 68% | 1017.9 hPa | 0 mm | - | - | - |
| 1778061637 | -2.22° C | 69% | 1018.2 hPa | 0 mm | - | - | - |
| 1778060732 | -2.22° C | 69% | 1018.3 hPa | 0 mm | - | - | - |
| 1778059830 | -2.22° C | 69% | 1018.5 hPa | 0 mm | - | - | - |
| 1778058928 | -2.22° C | 69% | 1018.7 hPa | 0 mm | - | - | - |
| 1778058029 | -2.22° C | 65% | 1019 hPa | 0 mm | - | - | - |
| 1778057121 | -1.67° C | 64% | 1019.4 hPa | 0 mm | - | - | - |
| 1778056220 | -1.11° C | 67% | 1019.5 hPa | 0 mm | - | - | - |
| 1778055320 | -1.11° C | 67% | 1019.5 hPa | 0 mm | - | - | - |
| 1778054415 | -1.11° C | 65% | 1019.5 hPa | 0 mm | - | - | - |
| 1778053511 | -1.11° C | 59% | 1019.6 hPa | 0 mm | - | - | - |
| 1778052609 | 0° C | 55% | 1019.8 hPa | 0 mm | - | - | - |
| 1778051705 | 1.11° C | 53% | 1019.8 hPa | 0 mm | - | - | - |
| 1778050802 | 1.11° C | 56% | 1020 hPa | 0 mm | - | - | - |
| 1778049961 | 0.56° C | 58% | 1020.2 hPa | 0 mm | - | - | - |
| 1778049059 | 1.67° C | 55% | 1020.3 hPa | 0 mm | - | - | - |
| 1778048155 | 1.67° C | 55% | 1020.3 hPa | 0 mm | - | - | - |
| 1778047253 | 1.67° C | 53% | 1020.3 hPa | 0 mm | - | - | - |
| 1778046352 | 2.78° C | 52% | 1020.3 hPa | 0 mm | - | - | - |
| 1778045458 | 2.78° C | 51% | 1020.4 hPa | 0 mm | - | - | - |
| 1778044566 | 2.78° C | 51% | 1020.4 hPa | 0 mm | - | - | - |
| 1778043662 | 3.33° C | 48% | 1020.6 hPa | 0 mm | - | - | - |
| 1778042753 | 3.89° C | 46% | 1020.7 hPa | 0 mm | - | - | - |
| 1778041849 | 3.89° C | 46% | 1020.8 hPa | 0 mm | - | - | - |
* Rain latest hour (hover to see other rain measurements)
** Current wind speed in m/s (hover to see current wind gust speed)